TimeMST,TemperatureF,Dew PointF,Humidity,Sea Level PressureIn,VisibilityMPH,Wind Direction,Wind SpeedMPH,Gust SpeedMPH,PrecipitationIn,Events,Conditions,WindDirDegrees,DateUTC
12:53 AM,26.1,19.9,78,29.89,10.0,East,5.8,-,N/A,,Clear,80,2013-11-04 07:53:00
1:53 AM,27.0,19.9,75,29.88,10.0,Calm,Calm,-,N/A,,Clear,0,2013-11-04 08:53:00
2:53 AM,24.1,19.0,81,29.91,10.0,NNE,4.6,-,N/A,,Clear,20,2013-11-04 09:53:00
3:53 AM,25.0,19.0,78,29.90,10.0,NNE,3.5,-,N/A,,Clear,20,2013-11-04 10:53:00
4:53 AM,23.0,18.0,81,29.93,10.0,Calm,Calm,-,N/A,,Clear,0,2013-11-04 11:53:00
5:53 AM,23.0,18.0,81,29.97,10.0,NNE,3.5,-,N/A,,Clear,30,2013-11-04 12:53:00
6:53 AM,21.0,18.0,88,30.00,10.0,NNE,4.6,-,N/A,,Clear,30,2013-11-04 13:53:00
7:53 AM,30.0,21.0,69,30.01,10.0,Calm,Calm,-,N/A,,Clear,0,2013-11-04 14:53:00
8:53 AM,35.1,21.9,59,30.02,10.0,Calm,Calm,-,N/A,,Clear,0,2013-11-04 15:53:00
9:53 AM,43.0,23.0,45,29.99,10.0,ENE,3.5,-,N/A,,Clear,60,2013-11-04 16:53:00
10:53 AM,46.9,23.0,39,29.97,10.0,East,5.8,-,N/A,,Clear,100,2013-11-04 17:53:00
11:53 AM,48.9,21.0,33,29.95,10.0,ESE,8.1,-,N/A,,Clear,120,2013-11-04 18:53:00
12:53 PM,50.0,21.9,33,29.91,10.0,SW,4.6,-,N/A,,Overcast,230,2013-11-04 19:53:00
1:53 PM,51.1,25.0,36,29.89,10.0,WSW,8.1,-,N/A,,Mostly Cloudy,240,2013-11-04 20:53:00
2:53 PM,50.0,26.1,39,29.90,10.0,West,4.6,-,N/A,,Overcast,270,2013-11-04 21:53:00
3:53 PM,50.0,27.0,41,29.88,10.0,West,3.5,-,N/A,,Scattered Clouds,270,2013-11-04 22:53:00
4:53 PM,46.9,28.0,48,29.91,10.0,North,4.6,-,N/A,,Overcast,350,2013-11-04 23:53:00
5:53 PM,46.0,28.9,51,29.91,10.0,NNE,3.5,-,N/A,,Overcast,20,2013-11-05 00:53:00
6:53 PM,44.1,30.0,58,29.93,10.0,North,4.6,-,0.00,,Overcast,360,2013-11-05 01:53:00
7:53 PM,41.0,30.0,65,29.89,10.0,NNE,6.9,-,N/A,,Scattered Clouds,20,2013-11-05 02:53:00
8:53 PM,41.0,33.1,73,29.89,10.0,NW,15.0,21.9,0.00,,Overcast,310,2013-11-05 03:53:00
9:53 PM,39.9,33.1,77,29.86,10.0,West,5.8,-,N/A,,Mostly Cloudy,270,2013-11-05 04:53:00
10:17 PM,39.2,35.6,87,29.93,6.0,West,11.5,-,0.01,Rain,Rain,260,2013-11-05 05:17:00
10:53 PM,37.0,35.1,93,29.86,10.0,South,3.5,-,0.03,,Overcast,190,2013-11-05 05:53:00
11:53 PM,37.9,35.1,89,29.85,10.0,SW,4.6,-,0.00,Rain,Light Rain,230,2013-11-05 06:53:00